Change the Weather History Date:

Friday, August 15, 2014

  Actual Average Record
Temperature  
Mean Temperature 83 °F -  
Max Temperature 97 °F 97 °F 108 °F (2002)
Min Temperature 69 °F 69 °F 62 °F (2004)
Cooling Degree Days 18    
Growing Degree Days 33 (Base 50)    
Moisture  
Dew Point 18 °F    
Average Humidity 10    
Maximum Humidity 25    
Minimum Humidity 4    
Precipitation  
Precipitation 0.00 in - - ()
Sea Level Pressure  
Sea Level Pressure 29.87 in    
Wind  
Wind Speed 8 mph (SSW)    
Max Wind Speed 21 mph    
Max Gust Speed 37 mph    
Visibility 10 miles    
Events      
Averages and records for this station are not official NWS values.
T = Trace of Precipitation, MM = Missing Value Source: NWS Daily Summary

Daily Weather History Graph

Daily Weather History Graph

Search for Another Location

Airport or City:

Trip Planner

Search our weather history database for the weather conditions in past years. The results will help you decide how hot, cold, wet, or windy it might be!

Date:

Astronomy

Aug. 15, 2014 Rise Set
Actual Time 6:01 AM PDT 7:34 PM PDT
Civil Twilight 5:34 AM PDT 8:02 PM PDT
Nautical Twilight 5:01 AM PDT 8:35 PM PDT
Astronomical Twilight 4:26 AM PDT 9:09 PM PDT
Moon 10:51 PM PDT (8/15) 11:38 AM PDT (8/15)
Length of Visible Light 14h 28m
Length of Day
13h 33m
Waning Gibbous, 68% of the Moon is Illuminated
Aug 15
Waning Gibbous
Aug 17
Last Quarter
Aug 25
New
Sep 2
First Quarter
Sep 8
Full

Hourly Weather History & Observations

Time (PDT) Temp. Dew Point Humidity Pressure Visibility Wind Dir Wind Speed Gust Speed Precip Events Conditions
12:52 AM 73.9 °F 33.1 °F 22% 29.85 in 10.0 mi North 9.2 mph - N/A   Clear
1:52 AM 73.9 °F 33.1 °F 22% 29.84 in 10.0 mi NNE 6.9 mph - N/A   Clear
2:52 AM 72.0 °F 34.0 °F 25% 29.85 in 10.0 mi ENE 4.6 mph - N/A   Clear
3:52 AM 80.1 °F 24.1 °F 13% 29.84 in 10.0 mi SSE 9.2 mph - N/A   Clear
4:52 AM 77.0 °F 24.1 °F 14% 29.85 in 10.0 mi Calm Calm - N/A   Clear
5:52 AM 71.1 °F 30.0 °F 22% 29.87 in 10.0 mi East 8.1 mph - N/A   Clear
6:52 AM 75.0 °F 30.9 °F 20% 29.89 in 10.0 mi Variable 3.5 mph - N/A   Clear
7:52 AM 79.0 °F 30.9 °F 17% 29.91 in 10.0 mi WNW 4.6 mph - N/A   Clear
8:52 AM 84.0 °F 23.0 °F 11% 29.92 in 10.0 mi WNW 5.8 mph - N/A   Clear
9:52 AM 89.1 °F 8.1 °F 5% 29.92 in 10.0 mi Variable 4.6 mph - N/A   Clear
10:52 AM 91.0 °F 7.0 °F 4% 29.92 in 10.0 mi SSW 10.4 mph 24.2 mph N/A   Clear
11:52 AM 91.9 °F 6.1 °F 4% 29.93 in 10.0 mi SSW 11.5 mph 23.0 mph N/A   Clear
12:52 PM 93.9 °F 9.0 °F 4% 29.91 in 10.0 mi SW 20.7 mph 28.8 mph N/A   Clear
1:52 PM 95.0 °F 10.9 °F 4% 29.90 in 10.0 mi SSW 18.4 mph 26.5 mph N/A   Clear
2:52 PM 97.0 °F 7.0 °F 4% 29.88 in 10.0 mi SSW 17.3 mph 36.8 mph N/A   Clear
3:52 PM 96.1 °F 7.0 °F 4% 29.85 in 10.0 mi WSW 12.7 mph 25.3 mph N/A   Clear
4:52 PM 95.0 °F 7.0 °F 4% 29.85 in 10.0 mi SW 15.0 mph 27.6 mph N/A   Clear
5:52 PM 95.0 °F 7.0 °F 4% 29.84 in 10.0 mi SSW 13.8 mph - N/A   Clear
6:52 PM 91.9 °F 7.0 °F 4% 29.83 in 10.0 mi SW 13.8 mph - N/A   Clear
7:52 PM 87.1 °F 9.0 °F 5% 29.84 in 10.0 mi SSW 8.1 mph - N/A   Clear
8:52 PM 82.9 °F 14.0 °F 8% 29.86 in 10.0 mi Calm Calm - N/A   Clear
9:52 PM 78.1 °F 19.9 °F 11% 29.88 in 10.0 mi NE 4.6 mph - N/A   Clear
10:52 PM 75.0 °F 23.0 °F 14% 29.88 in 10.0 mi ENE 3.5 mph - N/A   Clear
11:52 PM 73.0 °F 24.1 °F 16% 29.88 in 10.0 mi East 4.6 mph - N/A   Clear